Regional Weather Roundup
Issued by NWS

Home | Current Version | Previous Version | Graphics & Text | Print | Product List | Glossary On
Versions: 1 2 3 4 5 6 7 8 9 10 11 12 13 14 15 16 17 18 19 20 21 22 23 24 25 26 27 28 29 30 31 32 33 34 35 36 37 38 39 40 41 42 43 44 45 46 47 48 49 50
000
ASUS43 KFSD 052210
RWRSD

WEATHER ROUNDUP FOR SOUTH DAKOTA
NATIONAL WEATHER SERVICE SIOUX FALLS SD
500 PM CDT TUE MAY 05 2015

NOTE: "FAIR" INDICATES FEW OR NO CLOUDS BELOW 12,000 FEET WITH NO
SIGNIFICANT WEATHER AND/OR OBSTRUCTIONS TO VISIBILITY.


SDZ001>005-009-010-012>017-052300-
NORTHWEST AND NORTH CENTRAL SOUTH DAKOTA

CITY           SKY/WX    TMP DP  RH WIND       PRES   REMARKS
BUFFALO          N/A     67  50  54 SE25G38   29.77F
FAITH            N/A     65  51  60 S22G32    29.88F
MOBRIDGE       MOSUNNY   78  45  30 S22       29.88F
$$

SDZ012>016-024>037-041>051-057-063-072>074-052300-
SOUTHWEST AND SOUTH CENTRAL SOUTH DAKOTA

CITY           SKY/WX    TMP DP  RH WIND       PRES   REMARKS
RAPID CTY ARPT CLOUDY    62  50  64 S15       29.88F
PIERRE         PTSUNNY   68  52  56 SE18      29.91F
CUSTER         CLOUDY    52  45  77 S12G17    29.93F
ELLSWORTH AFB  CLOUDY    62  50  64 S20       29.87F
PHILIP         CLOUDY    69  53  56 S14       29.88F
PINE RIDGE     CLOUDY    60  50  69 SE12G20   29.90F
SPEARFISH      FAIR      68  48  49 E14G20    29.80F
WINNER         LGT RAIN  62  56  80 SE12      29.95F
$$

SDZ004>011-016>023-039-040-052300-
NORTHEAST SOUTH DAKOTA

CITY           SKY/WX    TMP DP  RH WIND       PRES   REMARKS
ABERDEEN       PTSUNNY   77  47  34 S21G29    29.94F
WATERTOWN      CLOUDY    70  53  54 SE12G25   30.00F
BROOKINGS      CLOUDY    63  57  82 SE21      30.03F
SISSETON         N/A     74  52  46 S24       29.97F
$$

SDZ017-020-022-023-036>040-048>070-052300-
SOUTHEAST SOUTH DAKOTA

CITY           SKY/WX    TMP DP  RH WIND       PRES   REMARKS
SIOUX FALLS    CLOUDY    69  57  65 S10       30.00F
HURON          CLOUDY    69  54  58 S13G22    29.96F
CHAMBERLAIN    CLOUDY    59  57  92 SE10      29.96F
MITCHELL       CLOUDY    66  57  72 S14       29.99F
YANKTON        CLOUDY    68  61  77 E6        29.96F
$$

ABBREVIATIONS USED IN REMARKS
   TC - TEMPERATURE IN CELSIUS
  WCI - WIND CHILL INDEX
   HX - HEAT INDEX
  VSB - VISIBILITY




USA.gov is the U.S. government's official web portal to all federal, state and local government web resources and services.